GFSFLT2_850_thetae_282.txt.gz
Theta_e
309 312 318 323 324 324 324 324 323 323 321 324 327 327 325 326 327 325 324 321 318 318 317 316 315 315 315
304 308 313 322 324 325 324 323 323 323 325 321 324 325 325 324 327 325 324 323 320 319 318 317 317 316 316
299 303 307 317 323 324 324 322 323 322 325 322 321 325 325 325 325 323 323 322 322 321 319 318 318 317 318
297 300 303 313 318 323 323 323 323 322 321 322 323 323 324 325 324 322 320 320 323 321 321 320 319 318 318
295 297 301 307 314 320 322 323 322 323 322 321 324 324 322 318 322 321 318 317 321 322 322 320 320 320 320
293 295 301 303 310 310 317 320 319 322 323 320 324 321 323 319 323 318 317 317 320 321 322 321 320 318 318
291 293 296 299 304 307 309 317 320 321 322 322 320 318 321 324 319 317 316 317 319 321 322 319 317 316 315
290 292 293 295 300 302 302 307 310 318 321 320 321 320 320 319 318 316 316 317 319 321 320 317 317 316 316
289 289 291 292 296 300 302 301 307 315 320 321 319 320 320 319 318 316 316 316 317 321 318 317 317 316 316
289 290 291 292 293 296 300 300 303 306 319 320 319 318 317 319 319 318 316 316 317 318 317 317 317 316 316
289 290 291 292 293 294 297 301 302 305 313 317 318 319 319 318 319 319 318 317 316 318 318 318 317 316 316
291 291 291 292 293 294 295 298 301 304 308 313 317 319 320 318 318 319 320 319 317 317 317 317 317 316 316
289 290 291 292 292 293 294 296 299 301 305 309 311 318 319 320 319 319 320 320 319 318 318 317 317 317 317
290 290 290 290 292 293 294 294 297 300 303 306 309 313 317 318 318 319 320 319 320 319 319 318 317 317 317
289 289 290 290 291 292 293 294 296 300 302 306 307 309 315 317 318 319 319 320 319 320 320 317 317 317 318
288 289 289 290 290 291 292 293 295 298 301 303 306 309 312 314 314 318 319 320 320 319 319 317 317 317 315
286 287 288 289 289 291 292 293 294 296 303 303 305 308 309 310 313 315 318 318 319 316 318 315 317 315 314

GFSFLT2_850_thetae_285.txt.gz
Theta_e
299 299 309 308 319 322 324 324 324 323 322 321 323 327 328 323 322 324 325 324 322 318 316 313 312 313 314
295 298 299 306 312 319 323 325 324 324 322 323 321 322 326 326 323 323 324 325 323 320 317 315 315 315 315
292 297 298 303 308 312 321 324 324 324 323 323 323 321 322 327 326 324 324 325 324 322 318 316 316 315 316
291 293 295 300 304 308 315 322 323 324 324 323 323 322 321 324 327 326 325 325 324 323 319 318 317 317 316
290 291 293 297 301 306 305 316 322 325 324 324 323 323 324 322 323 326 326 325 324 323 323 320 319 318 317
289 290 292 294 298 301 303 302 308 323 324 323 322 323 325 323 323 324 325 326 324 322 322 322 321 319 319
288 289 291 292 294 297 299 298 303 312 320 322 323 322 322 324 323 322 324 324 324 322 320 320 322 321 320
288 289 289 290 292 293 295 298 301 306 310 318 322 322 322 320 323 324 324 323 321 323 320 318 321 322 322
287 287 288 288 290 291 293 295 299 305 310 317 320 320 321 321 320 324 322 319 319 321 318 316 318 322 322
287 288 288 289 290 291 292 294 297 298 307 313 319 320 318 319 322 324 323 320 321 321 317 316 319 322 322
288 288 289 289 290 291 293 293 295 297 305 307 310 315 320 319 319 319 319 322 322 319 316 316 317 320 320
289 290 290 290 290 291 293 294 294 298 303 301 304 308 308 318 318 319 320 319 319 318 316 316 317 320 319
290 290 290 290 290 291 291 292 294 295 298 300 304 306 306 309 317 318 317 318 319 318 316 316 317 322 319
289 289 290 289 289 290 290 291 293 293 295 299 303 304 306 308 311 317 318 317 318 318 317 316 316 318 318
289 289 289 288 289 289 289 290 291 293 294 295 299 301 304 306 307 311 318 318 319 319 318 318 317 316 318
288 289 289 290 290 289 289 289 290 292 293 294 297 299 300 302 305 308 312 317 319 319 319 319 318 317 317
286 287 287 287 287 289 289 289 289 291 293 293 295 300 301 303 306 307 310 314 318 318 317 318 318 319 318

GFSFLT2_850_thetae_288.txt.gz
Theta_e
290 292 295 298 300 305 310 321 325 326 323 324 322 322 326 329 328 327 322 323 322 321 321 319 317 316 316
289 291 292 295 295 301 309 311 321 323 322 323 323 321 321 327 327 326 321 323 323 322 321 319 318 316 314
288 290 291 292 294 300 302 310 313 323 323 323 324 323 322 321 325 326 323 323 324 323 322 319 317 314 311
287 289 290 291 293 297 301 304 310 321 324 324 324 323 323 322 324 324 321 321 324 324 324 322 317 314 313
286 289 291 291 293 294 297 301 307 309 321 323 323 324 323 322 322 324 325 322 322 325 324 323 318 315 315
287 288 290 291 291 293 295 296 300 307 313 318 324 324 324 322 323 323 324 325 323 324 324 324 320 317 316
287 289 289 290 290 292 292 294 297 300 302 311 317 321 323 323 323 323 322 324 323 324 325 325 321 318 317
286 287 288 289 290 291 292 292 295 298 299 304 314 319 322 323 322 322 323 322 324 324 325 325 324 320 319
286 286 287 287 288 289 289 290 292 297 300 302 309 315 321 323 323 322 323 323 323 324 324 324 324 322 322
286 287 287 288 288 289 290 291 292 293 300 302 305 305 319 322 322 322 324 325 322 323 325 324 323 322 321
287 288 288 289 289 289 290 291 292 292 295 300 304 303 302 315 321 322 321 322 323 322 323 324 323 322 321
288 288 289 290 290 290 290 291 292 293 293 296 297 299 300 302 312 320 321 321 321 324 324 324 323 322 320
290 291 290 290 291 291 291 291 291 293 294 294 296 297 299 300 302 310 317 320 320 318 323 323 321 321 319
289 289 290 290 290 290 290 289 289 290 291 293 294 296 297 300 302 306 310 316 320 321 322 320 319 321 320
290 290 290 289 289 289 289 289 289 289 290 291 293 294 297 300 301 305 307 312 317 320 318 319 321 323 320
288 288 289 289 289 289 289 289 289 289 289 290 291 293 294 298 300 303 305 308 312 317 318 319 319 320 319
286 286 287 287 287 288 288 289 289 289 289 290 290 292 294 296 301 303 303 306 309 311 314 317 317 318 318

GFSFLT2_850_thetae_291.txt.gz
Theta_e
286 287 288 289 290 293 298 304 306 311 323 324 326 325 326 324 322 328 329 328 327 325 321 320 319 318 317
285 286 287 288 289 291 295 296 303 305 317 321 325 325 326 326 322 323 325 328 327 326 322 320 320 318 318
285 285 286 288 289 290 294 295 299 302 310 316 325 325 325 324 322 322 323 327 327 326 323 321 320 319 318
285 285 286 287 290 291 293 294 298 303 304 313 320 325 326 325 324 323 324 329 327 327 323 322 321 320 319
284 285 286 287 291 291 292 293 296 301 303 310 315 322 324 323 325 322 324 324 327 326 324 322 323 321 320
284 284 286 288 289 290 292 293 294 297 300 304 305 316 321 323 323 323 323 323 326 326 325 322 320 323 321
283 284 285 288 289 290 290 291 292 295 298 301 303 305 317 322 321 323 322 323 323 326 322 322 321 324 323
285 285 286 286 287 289 290 291 291 292 295 297 300 302 311 320 322 323 322 323 323 323 323 321 320 324 324
284 285 285 286 287 288 288 288 289 290 292 295 300 300 305 314 320 323 324 323 322 323 323 324 321 322 324
284 285 286 286 287 287 288 289 289 291 294 296 299 300 304 311 319 322 323 323 323 322 322 324 323 323 324
285 285 285 286 287 288 289 289 289 290 292 295 298 300 298 300 307 315 319 321 323 323 323 323 323 323 324
286 287 287 288 288 289 289 290 290 290 291 292 293 296 296 297 300 307 310 317 321 323 323 323 322 323 323
288 288 288 289 290 290 291 292 291 291 291 293 294 294 295 295 297 302 304 314 317 322 322 322 323 322 324
288 288 289 289 290 290 290 291 291 291 290 291 292 293 293 294 296 300 303 303 311 316 322 322 323 323 324
289 289 289 289 289 289 290 290 289 289 289 289 290 291 292 293 295 298 300 303 305 310 318 320 321 322 322
288 290 289 289 289 290 290 289 289 289 289 289 289 290 291 292 293 296 299 302 304 306 312 318 320 321 320
284 286 286 286 287 287 288 288 289 290 290 289 289 289 290 292 293 294 297 302 305 304 307 313 317 320 318

GFSFLT2_850_thetae_297.txt.gz
Theta_e
281 281 282 282 282 282 283 284 285 286 288 289 297 305 308 314 318 326 329 325 323 325 326 327 327 326 323
281 281 281 281 282 283 283 283 284 286 287 289 291 294 304 307 312 319 327 328 324 324 324 326 327 326 325
280 281 281 281 282 282 282 284 285 287 290 293 294 295 299 304 305 319 320 328 326 325 326 326 327 326 325
280 281 281 281 281 282 283 284 285 291 291 291 292 292 295 302 303 309 319 327 327 326 326 328 323 325 326
281 281 281 281 281 282 282 283 285 288 290 290 295 297 297 298 303 305 313 320 326 327 327 326 327 327 325
282 281 281 281 281 282 283 283 287 288 289 290 290 291 293 297 303 303 308 318 318 325 327 327 325 327 326
285 284 284 283 283 283 283 284 284 285 286 288 289 290 290 294 300 302 305 308 313 324 324 328 325 324 327
284 284 284 283 283 283 283 284 285 285 286 288 287 288 289 292 298 301 304 304 311 321 324 324 323 327 327
286 285 284 283 284 284 283 284 284 285 285 286 287 287 290 292 296 301 305 304 308 320 322 323 325 325 324
286 285 285 285 284 285 286 286 285 285 285 287 290 292 292 297 299 300 306 304 306 314 320 323 325 326 325
287 287 286 285 284 284 283 284 284 285 286 286 287 289 289 290 294 299 303 304 304 310 319 320 322 325 325
287 287 287 287 286 286 285 285 285 285 286 286 288 289 291 291 292 294 300 304 302 305 313 317 318 323 324
286 287 287 287 287 287 286 286 287 287 288 289 289 289 290 291 292 291 293 299 300 303 308 311 314 317 323
284 285 286 287 287 287 287 287 288 289 288 290 290 290 291 291 290 290 291 294 299 302 302 303 311 313 317
282 283 285 286 287 288 288 288 288 288 288 289 290 290 290 289 289 289 290 292 294 298 300 302 304 311 316
281 282 282 284 286 286 288 288 288 289 289 289 289 289 289 289 289 289 289 290 292 293 298 301 305 307 313
281 281 282 282 283 284 285 286 287 287 288 287 287 288 287 288 289 289 289 290 291 293 298 300 302 305 305